This is the latest recevied weather packets stored in our database for station/object IN3XSV-13. If no packets are shown the sender has not sent any weather packets the latest 10 day(s).
| Time | Temp. | Humidity | Pressure | Rain* | Wind** | Luminosity | Snow |
|---|---|---|---|---|---|---|---|
| 1787496476 | 28.33° C | 48% | 1012 hPa | 0 mm | - | - | - |
| 1787496176 | 28.33° C | 47% | 1012 hPa | 0 mm | - | - | - |
| 1787495876 | 28.33° C | 48% | 1012 hPa | 0 mm | - | - | - |
| 1787495576 | 27.78° C | 49% | 1012 hPa | 0 mm | - | - | - |
| 1787495276 | 27.78° C | 49% | 1012 hPa | 0 mm | - | - | - |
| 1787494976 | 27.22° C | 48% | 1012 hPa | 0 mm | - | - | - |
| 1787494676 | 27.78° C | 48% | 1012.1 hPa | 0 mm | - | - | - |
| 1787494376 | 27.78° C | 47% | 1012.1 hPa | 0 mm | - | - | - |
| 1787494076 | 27.78° C | 47% | 1011.9 hPa | 0 mm | - | - | - |
| 1787493776 | 28.33° C | 46% | 1012 hPa | 0 mm | - | - | - |
| 1787493476 | 29.44° C | 46% | 1012 hPa | 0 mm | - | - | - |
| 1787493176 | 29.44° C | 46% | 1012 hPa | 0 mm | - | - | - |
| 1787492876 | 30° C | 45% | 1012.1 hPa | 0 mm | - | - | - |
| 1787492576 | 29.44° C | 45% | 1012 hPa | 0 mm | - | - | - |
| 1787492276 | 30° C | 45% | 1012.1 hPa | 0 mm | - | - | - |
| 1787491976 | 30° C | 45% | 1012.1 hPa | 0 mm | - | - | - |
| 1787491676 | 30° C | 45% | 1012.1 hPa | 0 mm | - | - | - |
| 1787491376 | 30° C | 45% | 1012.2 hPa | 0 mm | - | - | - |
| 1787491076 | 30° C | 45% | 1012.3 hPa | 0 mm | - | - | - |
| 1787490776 | 30° C | 46% | 1012.2 hPa | 0 mm | - | - | - |
| 1787490476 | 29.44° C | 47% | 1012.1 hPa | 0 mm | - | - | - |
| 1787490176 | 28.89° C | 47% | 1012.3 hPa | 0 mm | - | - | - |
| 1787489876 | 28.89° C | 47% | 1012.3 hPa | 0 mm | - | - | - |
| 1787489576 | 28.33° C | 47% | 1012.3 hPa | 0 mm | - | - | - |
| 1787489276 | 28.33° C | 46% | 1012.3 hPa | 0 mm | - | - | - |
* Rain latest hour (hover to see other rain measurements)
** Current wind speed in m/s (hover to see current wind gust speed)